{"data":{"norad_id":63351,"intl_designator":"2025-061A","name":"LEMUR-2-UNTITLED-SC","alt_names":[],"object_type":"PAYLOAD","status":"ACTIVE","operator":null,"country":"US","launch_date":"2025-03-26","launch_site_code":"RLLB","launch_vehicle":null,"mission":null,"orbit_class":"UNKNOWN","rcs_meters":null,"size_class":null,"mass_kg":null,"dimensions":null,"purposes":["earth_obs"],"wikipedia_slug":null,"has_3d_model":false,"image_url":null,"decayed_at":null,"tle_current":{"epoch":"2026-09-19T16:20:59.954208Z","epoch_age_seconds":85867,"freshness":"FRESH","line1":"1 63351U 25061A   26262.68124947  .00002873  00000+0  16125-3 0  9998","line2":"2 63351  97.5754 237.4460 0017006 302.5521  57.4067 15.14049343 81883","mean_motion":15.14049343,"eccentricity":0.0017006,"inclination_deg":97.5754,"raan_deg":237.446,"arg_perigee_deg":302.5521,"mean_anomaly_deg":57.4067,"bstar":0.00016125,"rev_number":8188,"period_min":95.10918561919,"perigee_km":512.12863676504,"apogee_km":535.60372999235,"semimajor_km":6902.0031833787,"source":"CELESTRAK","updated_at":"2026-09-20T09:00:34.875365Z"}}}